Погода в Эльтоне

Погода в Эльтоне : погода сейчас, прогноз погоды и архив. Всё, что Вы хотите узнать о погоде в Эльтоне!

Хотите узнать прогноз погоды в Эльтоне? Тогда Вам сюда: Погода в Эльтоне

Поиск расширенной информации на нашем сайте:

Другие новости

Новости СМИ2

Главная страница сайта

Новости сайта

03.07.2017

Напоминаем, что на нашем специализированном сайте Метеоцентр.Азия вы можете получить высокодетализированные автоматические прогнозы погоды по пунктам России, СНГ и мира в авиационном формате (включающие направление и скорость ветра, видимость, явления погоды, количество и форму облачности, нижнюю и верхнюю границу облачности).


Погода в Эльтоне - сегодня

Время (UTC), дата Ветер
(°,м/с) 
Видим.   Явления Облачность Т
(°С)
Тd
(°С)
f(%) Тe
(°С)
Pmin
(гПа)
dP
(гПа)
Po
(мм)
O2
(г/м3)
Тmin Tmax R s Состояние
почвы
06 19.09.17 150 (ЮВ) 7-11{11}  20000 м    1/0 верхняя 
[Ci fib]
+26.9 +8.8 32 +27  1018.2  0.5  763  278           
09 19.09.17 160 (Ю) 8-13{13}  20000 м    ясно 
+33.4 +3 15 +33  1016.8  -1.3  762  273           
12 19.09.17 150 (ЮВ) 5{15}  20000 м    ясно 
+34.3 +1.2 12 +34  1015.6  -1.2  761  272           
15 19.09.17 130 (ЮВ) 3{10}  20000 м    ясно 
+0.5   1015.6  761      +34.5       
18 19.09.17 120 (ЮВ) 20000 м    ясно 
+23.1 +2.7 26 +23  1016.4  0.8  762  283           
21 19.09.17 120 (ЮВ) 20000 м    ясно 
+20.9 +4.4 34 +21  1016.8  0.4  762  285           
00 20.09.17 100 (В) 20000 м    ясно 
+18.9 +6.2 43 +19  1016.4  -0.4  762  286           
03 20.09.17 090 (В) 20000 м    3/0 верхняя 
[Ci fib]
+17 +7 52 +17  1016.6  0.2  762  288  +17        сухая 
06 20.09.17 140 (ЮВ) 20000 м    1/0 верхняя 
[Ci fib]
+26.7 +8.9 33 +27  1017.5  0.9  763  278  +16.9         
09 20.09.17 120 (ЮВ) 20000 м    1/0 верхняя 
[Ci fib]
+32.6 +2.1 14 +33  1016.8  -0.6  762  274           
12 20.09.17 120 (ЮВ) 4{10}  20000 м    1/0 верхняя 
[Ci fib]
+33.7 +0.8 12 +34  1016  -0.8  761  273           
15 20.09.17 090 (В) 20000 м    1/0 верхняя 
[Ci fib]
+30 +0.4 15 +30  1015.7  -0.3  761  276    +33.8       
18 20.09.17 070 (В) 20000 м    1/0 верхняя 
[Ci fib]
+22.7 +1.4 25 +23  1016.8  1.1  762  283           
21 20.09.17 100 (В) 20000 м    ясно 
+20.3 +1.8 29 +20  1017.3  0.5  762  286           
00 21.09.17 040 (СВ) 20000 м    ясно 
+16.3 +4.7 46 +17  1017.8  0.5  763  289           
03 21.09.17 050 (СВ) 20000 м    ясно 
+15.1 +5.3 52 +15  1018.7  0.9  764  291  +15.1        сухая 
06 21.09.17 050 (СВ) 20000 м    ясно 
+25.7 +5.5 27 +26  1019.3  0.6  764  281  +14.9         
09 21.09.17 090 (В) 20000 м    ясно 
+32.8 +0.6 13 +33  1018.4  -0.9  763  274           
12 21.09.17 110 (В) 20000 м    ясно 
+33.2 +0.1 12 +33  1017.8  -0.5  763  274           
15 21.09.17 040 (СВ) 4{10}  20000 м    3/0 верхняя 
[Ci fib]
+29.3 +2.5 18 +29  1018.1  0.2  763  277    +33.6       
18 21.09.17 040 (СВ) 6-10{10}  20000 м    6/0 верхняя 
[Ci]
+23.4 +2.8 26 +23  1018.9  0.8  764  283           
21 21.09.17 060 (СВ) 6-10{11}  20000 м    1/0 верхняя 
[Ci fib]
+18.9 +1.3 31 +19  1019.6  0.7  764  288           
00 22.09.17 060 (СВ) 7-11{12}  20000 м    ясно 
+16.5 +3.1 41 +16  1019.5  764  290           
03 22.09.17 050 (СВ) 20000 м    ясно 
+13.6 +5.1 56 +12  1020.7  1.2  765  293  +13.6        сухая 
06 22.09.17 050 (СВ) 6-11{13}  20000 м    ясно 
+18.6 +5.3 42 +19  1022.1  1.4  766  288  +13.5         
Время (UTC), дата Ветер
(°,м/с) 
Видим.   Явления Облачность Т
(°С)
Тd
(°С)
f(%) Тe
(°С)
Pmin
(гПа)
dP
(гПа)
Po
(мм)
O2
(г/м3)
Тmin Tmax R s Состояние
почвы

Для получения пояснительной информации подведите курсор к названию столбца.

ПОГОДА в Эльтоне - архив

Всё, что Вы хотите узнать о погоде в Эльтоне - удобно и подробно!

Выберите нужную дату (начиная с 1 января 2015* года) и нажмите кнопку "Найти".
Будут отображены архивные сводки погоды по пункту Эльтон, начиная с указанной даты.


Отображать данные в формате CSV (для использования в таблицах Excel)


Внимание! Наш архив погоды предназначен исключительно для личного некоммерческого использования в познавательных целях. Если Вам необходимы официальные справки о состоянии погоды (для производственных, юридических, коммерческих и т.п. целей), обращайтесь в органы Росгидромета.

*Примечание: данная дата относится к архиву по метеостанциям СССР (Россия, СНГ, Балтия).
Архив по метеостанциям Зарубежной Европы и Азии (кроме Китая) хранится 10 дней, по другим регионам земного шара (Китай, Африка, Америка, Австралия, Океания) - 1 день.

Эльтон - район местоположения метеостанции


Название, широта, долгота, высота метеостанции:
Эльтон 49.1°ш. 46.9°д. 6 м над ур. моря [Российская Федерация]

Дополнительная информация

В oтличие oт бoльшинства пoгoдных сайтoв мы публикуем пoдрoбную метеoинфoрмацию в детальнoм прoфессиoнальнoм фoрмате.

Характеристики температуры и влажнoсти вoздуха измеряются на высoте 2 м в тени вдали oт зданий и деревьев.
Скoрoсть ветра измеряется на высoте 10 м (на урoвне рoста челoвека скoрoсть ветра ниже в 1.5-2 раза). Если метеoстанция нахoдится в гoрoде или в лесу, тo скoрoсть ветра занижена на 2-4 м/с пo сравнению с oткрытым местoм. Скoрoсть ветра над акватoриями крупных рек и oзёр, а также на вершинах хoлмoв на 2-5 м/с выше, чем в oбычных услoвиях.
Атмoсфернoе давление в разных тoчках местнoсти мoжет значительнo oтличаться oт давления на метеoстанции, в зависимoсти oт услoвий рельефа (при пoдъёме на 10 м давление пoнижается примернo на 1 мм рт.ст.).